LOCATION_NAME,SAMPLE COLLECTION TIME,DOSE EQUIVALENT RATE (nSv/h),GAMMA COUNT RATE R02 (CPM),GAMMA COUNT RATE R03 (CPM),GAMMA COUNT RATE R04 (CPM),GAMMA COUNT RATE R05 (CPM),GAMMA COUNT RATE R06 (CPM),GAMMA COUNT RATE R07 (CPM),GAMMA COUNT RATE R08 (CPM),GAMMA COUNT RATE R09 (CPM),STATUS
IL: CHICAGO,01/04/2016 15:04:00,,2029.00,1055.00,297.00,144.00,92.00,112.00,57.00,26.00,APPROVED
IL: CHICAGO,01/04/2016 16:04:00,,2018.00,1076.00,307.00,145.00,92.00,111.00,59.00,28.00,APPROVED
IL: CHICAGO,01/04/2016 17:04:00,,1985.00,1059.00,300.00,148.00,92.00,112.00,60.00,27.00,APPROVED
IL: CHICAGO,01/04/2016 18:05:00,,1958.00,1046.00,298.00,149.00,93.00,112.00,58.00,26.00,APPROVED
IL: CHICAGO,01/04/2016 19:05:00,,1959.00,1031.00,295.00,145.00,92.00,111.00,60.00,27.00,APPROVED
IL: CHICAGO,01/04/2016 20:05:00,,1958.00,1031.00,298.00,143.00,93.00,109.00,57.00,27.00,APPROVED
IL: CHICAGO,01/04/2016 21:05:00,,1946.00,1026.00,294.00,141.00,89.00,107.00,57.00,27.00,APPROVED
IL: CHICAGO,01/04/2016 22:06:00,,1939.00,1018.00,290.00,141.00,89.00,107.00,57.00,26.00,APPROVED
IL: CHICAGO,01/04/2016 23:06:00,,1931.00,1007.00,288.00,137.00,87.00,105.00,58.00,27.00,APPROVED
IL: CHICAGO,01/05/2016 00:06:00,,1939.00,1007.00,291.00,139.00,88.00,107.00,57.00,27.00,APPROVED
IL: CHICAGO,01/05/2016 01:06:00,,1941.00,1018.00,285.00,140.00,88.00,105.00,58.00,27.00,APPROVED
IL: CHICAGO,01/05/2016 02:06:00,,1933.00,1007.00,289.00,137.00,89.00,104.00,55.00,26.00,APPROVED
IL: CHICAGO,01/05/2016 03:07:00,,1944.00,1021.00,289.00,136.00,88.00,104.00,56.00,26.00,APPROVED
IL: CHICAGO,01/05/2016 04:07:00,,1954.00,1015.00,293.00,136.00,89.00,107.00,56.00,26.00,APPROVED
IL: CHICAGO,01/05/2016 05:07:00,,1953.00,1015.00,286.00,139.00,90.00,106.00,56.00,27.00,APPROVED
IL: CHICAGO,01/05/2016 06:07:00,,1978.00,1021.00,291.00,140.00,88.00,110.00,56.00,27.00,APPROVED
IL: CHICAGO,01/05/2016 07:07:00,,1994.00,1033.00,292.00,141.00,89.00,109.00,57.00,28.00,APPROVED
IL: CHICAGO,01/05/2016 08:08:00,,2011.00,1046.00,294.00,142.00,90.00,112.00,56.00,26.00,APPROVED
IL: CHICAGO,01/05/2016 09:08:00,,2033.00,1041.00,302.00,140.00,90.00,109.00,54.00,28.00,APPROVED
IL: CHICAGO,01/05/2016 10:08:00,,2043.00,1062.00,301.00,143.00,93.00,112.00,54.00,26.00,APPROVED
IL: CHICAGO,01/05/2016 11:08:00,,2083.00,1092.00,309.00,148.00,94.00,118.00,56.00,27.00,APPROVED
IL: CHICAGO,01/05/2016 12:09:00,,2111.00,1113.00,320.00,148.00,97.00,122.00,57.00,28.00,APPROVED
IL: CHICAGO,01/05/2016 13:09:00,,2122.00,1134.00,318.00,154.00,96.00,121.00,59.00,28.00,APPROVED
IL: CHICAGO,01/05/2016 14:09:00,,2147.00,1138.00,324.00,157.00,100.00,124.00,56.00,29.00,APPROVED
IL: CHICAGO,01/05/2016 15:09:00,,2148.00,1151.00,326.00,159.00,99.00,128.00,58.00,28.00,APPROVED
IL: CHICAGO,01/05/2016 16:09:00,,2131.00,1155.00,333.00,162.00,100.00,125.00,60.00,28.00,APPROVED
IL: CHICAGO,01/05/2016 17:10:00,,2096.00,1153.00,324.00,164.00,96.00,127.00,63.00,29.00,APPROVED
IL: CHICAGO,01/05/2016 18:10:00,,2061.00,1145.00,324.00,167.00,100.00,120.00,64.00,30.00,APPROVED
IL: CHICAGO,01/05/2016 19:10:00,,2024.00,1132.00,320.00,166.00,99.00,119.00,66.00,29.00,APPROVED
IL: CHICAGO,01/05/2016 20:10:00,,1997.00,1106.00,316.00,160.00,96.00,121.00,68.00,28.00,APPROVED
IL: CHICAGO,01/05/2016 21:11:00,,2007.00,1116.00,317.00,160.00,97.00,118.00,69.00,29.00,APPROVED
IL: CHICAGO,01/05/2016 22:11:00,,2025.00,1106.00,317.00,161.00,96.00,122.00,66.00,30.00,APPROVED
IL: CHICAGO,01/05/2016 23:11:00,,2043.00,1123.00,315.00,161.00,96.00,118.00,65.00,29.00,APPROVED
IL: CHICAGO,01/06/2016 00:11:00,,2041.00,1122.00,315.00,158.00,94.00,120.00,64.00,29.00,APPROVED
IL: CHICAGO,01/06/2016 01:11:00,,2064.00,1108.00,318.00,158.00,97.00,117.00,64.00,30.00,APPROVED
IL: CHICAGO,01/06/2016 02:12:00,,2044.00,1120.00,320.00,160.00,97.00,116.00,65.00,29.00,APPROVED
IL: CHICAGO,01/06/2016 03:12:00,,2051.00,1118.00,319.00,156.00,96.00,117.00,63.00,29.00,APPROVED
IL: CHICAGO,01/06/2016 04:12:00,,2070.00,1123.00,321.00,157.00,95.00,120.00,63.00,29.00,APPROVED
IL: CHICAGO,01/06/2016 05:12:00,,2070.00,1131.00,316.00,158.00,97.00,119.00,63.00,29.00,APPROVED
IL: CHICAGO,01/06/2016 06:13:00,,2084.00,1135.00,320.00,158.00,99.00,119.00,63.00,28.00,APPROVED
IL: CHICAGO,01/06/2016 07:13:00,,2082.00,1136.00,321.00,158.00,98.00,122.00,63.00,30.00,APPROVED
IL: CHICAGO,01/06/2016 08:13:00,,2102.00,1142.00,329.00,160.00,99.00,124.00,63.00,30.00,APPROVED
IL: CHICAGO,01/06/2016 09:13:00,,2123.00,1162.00,328.00,164.00,100.00,125.00,65.00,29.00,APPROVED
IL: CHICAGO,01/06/2016 10:13:00,,2126.00,1174.00,327.00,165.00,100.00,125.00,65.00,30.00,APPROVED
IL: CHICAGO,01/06/2016 11:14:00,,2136.00,1178.00,331.00,167.00,101.00,127.00,63.00,30.00,APPROVED
IL: CHICAGO,01/06/2016 12:14:00,,2136.00,1176.00,333.00,166.00,101.00,126.00,65.00,28.00,APPROVED
IL: CHICAGO,01/06/2016 13:14:00,,2136.00,1177.00,335.00,166.00,100.00,124.00,63.00,29.00,APPROVED
IL: CHICAGO,01/06/2016 14:14:00,,2144.00,1181.00,332.00,163.00,99.00,126.00,65.00,30.00,APPROVED
IL: CHICAGO,01/06/2016 15:15:00,,2121.00,1168.00,335.00,166.00,100.00,127.00,63.00,29.00,APPROVED
IL: CHICAGO,01/06/2016 16:15:00,,2096.00,1158.00,332.00,164.00,99.00,123.00,67.00,30.00,APPROVED
IL: CHICAGO,01/06/2016 17:15:00,,2062.00,1158.00,329.00,169.00,99.00,125.00,68.00,30.00,APPROVED
IL: CHICAGO,01/06/2016 18:15:00,,2015.00,1143.00,328.00,171.00,101.00,125.00,69.00,30.00,APPROVED
IL: CHICAGO,01/06/2016 19:15:00,,2015.00,1138.00,330.00,168.00,101.00,123.00,72.00,30.00,APPROVED
IL: CHICAGO,01/06/2016 20:16:00,,2018.00,1151.00,325.00,174.00,101.00,124.00,70.00,30.00,APPROVED
IL: CHICAGO,01/06/2016 21:16:00,,2039.00,1169.00,333.00,173.00,107.00,128.00,71.00,31.00,APPROVED
IL: CHICAGO,01/06/2016 22:16:00,,2031.00,1158.00,333.00,173.00,103.00,126.00,71.00,30.00,APPROVED
IL: CHICAGO,01/06/2016 23:16:00,,2033.00,1154.00,329.00,171.00,103.00,124.00,70.00,30.00,APPROVED
IL: CHICAGO,01/07/2016 00:17:00,,2039.00,1154.00,330.00,169.00,101.00,121.00,71.00,30.00,APPROVED
IL: CHICAGO,01/07/2016 01:17:00,,2039.00,1151.00,326.00,173.00,102.00,123.00,71.00,30.00,APPROVED
IL: CHICAGO,01/07/2016 02:17:00,,2043.00,1158.00,332.00,172.00,100.00,124.00,71.00,31.00,APPROVED
IL: CHICAGO,01/07/2016 03:17:00,,2058.00,1159.00,329.00,172.00,101.00,125.00,70.00,32.00,APPROVED
IL: CHICAGO,01/07/2016 04:17:00,,2034.00,1154.00,326.00,167.00,101.00,123.00,69.00,28.00,APPROVED
IL: CHICAGO,01/07/2016 05:18:00,,2051.00,1153.00,327.00,172.00,100.00,124.00,70.00,31.00,APPROVED
IL: CHICAGO,01/07/2016 06:18:00,,2044.00,1151.00,329.00,167.00,103.00,120.00,67.00,29.00,APPROVED
IL: CHICAGO,01/07/2016 07:19:00,,2031.00,1138.00,324.00,168.00,101.00,121.00,68.00,31.00,APPROVED
IL: CHICAGO,01/07/2016 08:19:00,,2026.00,1135.00,325.00,162.00,101.00,122.00,68.00,30.00,APPROVED
IL: CHICAGO,01/07/2016 09:20:00,,2033.00,1136.00,322.00,165.00,101.00,121.00,69.00,30.00,APPROVED
IL: CHICAGO,01/07/2016 10:20:00,,2027.00,1138.00,327.00,165.00,99.00,123.00,70.00,30.00,APPROVED
IL: CHICAGO,01/07/2016 11:20:00,,2013.00,1137.00,324.00,166.00,99.00,122.00,71.00,29.00,APPROVED
IL: CHICAGO,01/07/2016 12:20:00,,2030.00,1141.00,327.00,171.00,102.00,121.00,69.00,31.00,APPROVED
IL: CHICAGO,01/07/2016 13:20:00,,2042.00,1148.00,325.00,172.00,103.00,127.00,68.00,31.00,APPROVED
IL: CHICAGO,01/07/2016 14:50:00,,2030.00,1099.00,313.00,154.00,96.00,116.00,66.00,28.00,APPROVED
IL: CHICAGO,01/07/2016 15:50:00,,2044.00,1120.00,318.00,163.00,99.00,115.00,67.00,31.00,APPROVED
IL: CHICAGO,01/07/2016 16:50:00,,2010.00,1122.00,321.00,168.00,100.00,121.00,71.00,29.00,APPROVED
IL: CHICAGO,01/07/2016 17:50:00,,1983.00,1111.00,322.00,164.00,99.00,118.00,70.00,29.00,APPROVED
IL: CHICAGO,01/07/2016 18:50:00,,1977.00,1115.00,319.00,169.00,101.00,118.00,73.00,30.00,APPROVED
IL: CHICAGO,01/07/2016 19:51:00,,1993.00,1122.00,320.00,166.00,100.00,121.00,70.00,31.00,APPROVED
IL: CHICAGO,01/07/2016 20:51:00,,1991.00,1126.00,320.00,167.00,99.00,122.00,74.00,30.00,APPROVED
IL: CHICAGO,01/07/2016 21:51:00,,1988.00,1123.00,326.00,169.00,103.00,120.00,74.00,30.00,APPROVED
IL: CHICAGO,01/07/2016 22:51:00,,2004.00,1131.00,320.00,169.00,100.00,119.00,71.00,30.00,APPROVED
IL: CHICAGO,01/07/2016 23:52:00,,1997.00,1115.00,326.00,168.00,102.00,121.00,73.00,31.00,APPROVED
IL: CHICAGO,01/08/2016 00:52:00,,1994.00,1126.00,322.00,166.00,99.00,118.00,72.00,29.00,APPROVED
IL: CHICAGO,01/08/2016 01:52:00,,2006.00,1135.00,326.00,169.00,99.00,119.00,70.00,29.00,APPROVED
IL: CHICAGO,01/08/2016 02:52:00,,2021.00,1148.00,325.00,170.00,100.00,123.00,72.00,30.00,APPROVED
IL: CHICAGO,01/08/2016 03:52:00,,2023.00,1149.00,326.00,170.00,102.00,124.00,73.00,30.00,APPROVED
IL: CHICAGO,01/08/2016 04:53:00,,2028.00,1148.00,331.00,170.00,102.00,122.00,72.00,31.00,APPROVED
IL: CHICAGO,01/08/2016 05:53:00,,2029.00,1154.00,331.00,174.00,103.00,124.00,74.00,31.00,APPROVED
IL: CHICAGO,01/08/2016 06:53:00,,2022.00,1147.00,328.00,174.00,105.00,125.00,73.00,30.00,APPROVED
IL: CHICAGO,01/08/2016 07:53:00,,2036.00,1160.00,331.00,173.00,104.00,123.00,74.00,30.00,APPROVED
IL: CHICAGO,01/08/2016 08:54:00,,2042.00,1175.00,336.00,174.00,105.00,125.00,74.00,32.00,APPROVED
IL: CHICAGO,01/08/2016 09:54:00,,2054.00,1175.00,335.00,181.00,104.00,128.00,74.00,31.00,APPROVED
IL: CHICAGO,01/08/2016 10:54:00,,2061.00,1185.00,337.00,177.00,104.00,129.00,75.00,31.00,APPROVED
IL: CHICAGO,01/08/2016 11:54:00,,2056.00,1194.00,339.00,182.00,106.00,129.00,77.00,32.00,APPROVED
IL: CHICAGO,01/08/2016 12:54:00,,2107.00,1222.00,347.00,185.00,108.00,133.00,78.00,31.00,APPROVED
IL: CHICAGO,01/08/2016 13:55:00,,2159.00,1264.00,360.00,192.00,109.00,136.00,77.00,32.00,APPROVED
IL: CHICAGO,01/08/2016 14:55:00,,2157.00,1281.00,369.00,199.00,113.00,143.00,78.00,33.00,APPROVED
IL: CHICAGO,01/08/2016 15:55:00,,2126.00,1246.00,355.00,196.00,111.00,141.00,78.00,33.00,APPROVED
IL: CHICAGO,01/08/2016 16:55:00,,2178.00,1312.00,374.00,205.00,116.00,144.00,82.00,34.00,APPROVED
IL: CHICAGO,01/08/2016 17:55:00,,2165.00,1317.00,371.00,204.00,116.00,145.00,82.00,34.00,APPROVED
IL: CHICAGO,01/08/2016 18:56:00,,2166.00,1323.00,380.00,217.00,118.00,150.00,86.00,35.00,APPROVED
IL: CHICAGO,01/08/2016 19:56:00,,2195.00,1361.00,390.00,225.00,121.00,155.00,89.00,36.00,APPROVED
IL: CHICAGO,01/08/2016 20:56:00,,2162.00,1324.00,381.00,214.00,120.00,148.00,85.00,35.00,APPROVED
IL: CHICAGO,01/08/2016 21:56:00,,2114.00,1270.00,373.00,207.00,118.00,143.00,85.00,33.00,APPROVED
IL: CHICAGO,01/08/2016 22:57:00,,2098.00,1271.00,365.00,206.00,113.00,143.00,85.00,34.00,APPROVED
IL: CHICAGO,01/08/2016 23:57:00,,2245.00,1421.00,400.00,232.00,126.00,157.00,93.00,38.00,APPROVED
IL: CHICAGO,01/09/2016 00:57:00,,2332.00,1490.00,422.00,248.00,131.00,166.00,97.00,38.00,APPROVED
IL: CHICAGO,01/09/2016 01:57:00,,2214.00,1368.00,395.00,230.00,123.00,156.00,92.00,38.00,APPROVED
IL: CHICAGO,01/09/2016 02:57:00,,2137.00,1307.00,374.00,212.00,120.00,145.00,87.00,35.00,APPROVED
IL: CHICAGO,01/09/2016 03:58:00,,2096.00,1271.00,364.00,204.00,116.00,142.00,85.00,35.00,APPROVED
IL: CHICAGO,01/09/2016 04:58:00,,2102.00,1280.00,367.00,212.00,118.00,144.00,84.00,36.00,APPROVED
IL: CHICAGO,01/09/2016 05:58:00,,2142.00,1340.00,382.00,223.00,122.00,151.00,89.00,38.00,APPROVED
IL: CHICAGO,01/09/2016 06:58:00,,2134.00,1325.00,377.00,217.00,120.00,147.00,89.00,36.00,APPROVED
IL: CHICAGO,01/09/2016 07:59:00,,2157.00,1335.00,381.00,224.00,121.00,152.00,89.00,36.00,APPROVED
IL: CHICAGO,01/09/2016 08:59:00,,2170.00,1358.00,387.00,230.00,125.00,155.00,90.00,36.00,APPROVED
IL: CHICAGO,01/09/2016 09:59:00,,2211.00,1367.00,385.00,225.00,124.00,152.00,91.00,36.00,APPROVED
IL: CHICAGO,01/09/2016 10:59:00,,2230.00,1376.00,390.00,232.00,125.00,156.00,90.00,36.00,APPROVED
IL: CHICAGO,01/09/2016 11:59:00,,2222.00,1375.00,389.00,228.00,123.00,157.00,90.00,36.00,APPROVED
IL: CHICAGO,01/09/2016 13:00:00,,2253.00,1405.00,396.00,230.00,127.00,159.00,90.00,38.00,APPROVED
IL: CHICAGO,01/09/2016 14:00:00,,2283.00,1436.00,408.00,236.00,126.00,163.00,89.00,36.00,APPROVED
IL: CHICAGO,01/09/2016 15:00:00,,2327.00,1467.00,413.00,246.00,131.00,168.00,94.00,38.00,APPROVED
IL: CHICAGO,01/09/2016 16:00:00,,2381.00,1535.00,430.00,253.00,134.00,175.00,96.00,37.00,APPROVED
IL: CHICAGO,01/09/2016 17:01:00,,2376.00,1507.00,428.00,252.00,135.00,171.00,96.00,37.00,APPROVED
IL: CHICAGO,01/09/2016 18:01:00,,2318.00,1450.00,411.00,245.00,131.00,167.00,94.00,39.00,APPROVED
IL: CHICAGO,01/09/2016 19:01:00,,2298.00,1425.00,400.00,234.00,127.00,160.00,92.00,36.00,APPROVED
IL: CHICAGO,01/09/2016 20:01:00,,2417.00,1531.00,437.00,251.00,134.00,174.00,95.00,38.00,APPROVED
IL: CHICAGO,01/09/2016 21:01:00,,2403.00,1516.00,437.00,244.00,132.00,173.00,96.00,37.00,APPROVED
IL: CHICAGO,01/09/2016 22:02:00,,2474.00,1567.00,436.00,247.00,133.00,176.00,95.00,37.00,APPROVED
IL: CHICAGO,01/09/2016 23:02:00,,2470.00,1547.00,440.00,242.00,131.00,173.00,91.00,34.00,APPROVED
IL: CHICAGO,01/10/2016 00:02:00,,2311.00,1411.00,401.00,215.00,123.00,154.00,84.00,35.00,APPROVED
IL: CHICAGO,01/10/2016 01:02:00,,2392.00,1458.00,414.00,220.00,124.00,158.00,87.00,35.00,APPROVED
IL: CHICAGO,01/10/2016 02:03:00,,2485.00,1533.00,437.00,235.00,129.00,169.00,89.00,35.00,APPROVED
IL: CHICAGO,01/10/2016 03:03:00,,2443.00,1487.00,424.00,228.00,126.00,164.00,87.00,35.00,APPROVED
IL: CHICAGO,01/10/2016 04:03:00,,2329.00,1389.00,400.00,213.00,120.00,152.00,82.00,34.00,APPROVED
IL: CHICAGO,01/10/2016 05:03:00,,2204.00,1275.00,364.00,189.00,112.00,142.00,74.00,32.00,APPROVED
IL: CHICAGO,01/10/2016 06:03:00,,2165.00,1205.00,348.00,174.00,105.00,130.00,70.00,31.00,APPROVED
IL: CHICAGO,01/10/2016 07:04:00,,2144.00,1188.00,339.00,169.00,103.00,128.00,67.00,29.00,APPROVED
IL: CHICAGO,01/10/2016 08:04:00,,2165.00,1181.00,338.00,166.00,102.00,130.00,64.00,28.00,APPROVED
IL: CHICAGO,01/10/2016 09:04:00,,2160.00,1181.00,336.00,162.00,102.00,127.00,62.00,29.00,APPROVED
IL: CHICAGO,01/10/2016 10:04:00,,2157.00,1163.00,331.00,159.00,102.00,125.00,61.00,29.00,APPROVED
IL: CHICAGO,01/10/2016 11:05:00,,2153.00,1150.00,328.00,156.00,100.00,125.00,62.00,29.00,APPROVED
IL: CHICAGO,01/10/2016 12:05:00,,2145.00,1141.00,325.00,155.00,97.00,124.00,58.00,29.00,APPROVED
IL: CHICAGO,01/10/2016 13:05:00,,2168.00,1131.00,322.00,153.00,95.00,125.00,59.00,29.00,APPROVED
IL: CHICAGO,01/10/2016 14:05:00,,2168.00,1113.00,322.00,151.00,96.00,121.00,55.00,28.00,APPROVED
IL: CHICAGO,01/10/2016 17:06:00,,2221.00,1096.00,316.00,146.00,95.00,119.00,52.00,27.00,APPROVED
IL: CHICAGO,01/10/2016 18:06:00,,2131.00,1097.00,311.00,149.00,95.00,121.00,52.00,28.00,APPROVED
IL: CHICAGO,01/10/2016 19:06:00,,2142.00,1097.00,313.00,147.00,94.00,120.00,52.00,28.00,APPROVED
IL: CHICAGO,01/10/2016 20:07:00,,2134.00,1087.00,311.00,144.00,94.00,118.00,51.00,28.00,APPROVED
IL: CHICAGO,01/10/2016 21:07:00,,2679.00,1093.00,313.00,148.00,97.00,119.00,52.00,27.00,APPROVED
IL: CHICAGO,01/11/2016 22:12:00,,2446.00,1124.00,321.00,151.00,99.00,124.00,53.00,28.00,APPROVED
IL: CHICAGO,01/11/2016 23:13:00,,2195.00,1161.00,331.00,154.00,102.00,126.00,55.00,28.00,APPROVED
IL: CHICAGO,01/12/2016 00:13:00,,2238.00,1200.00,348.00,163.00,104.00,134.00,59.00,30.00,APPROVED
IL: CHICAGO,01/12/2016 01:13:00,,2252.00,1216.00,349.00,168.00,105.00,133.00,62.00,29.00,APPROVED
IL: CHICAGO,01/12/2016 02:13:00,,2306.00,1275.00,369.00,171.00,110.00,138.00,65.00,29.00,APPROVED
IL: CHICAGO,01/12/2016 03:13:00,,2350.00,1328.00,380.00,183.00,111.00,145.00,69.00,30.00,APPROVED
IL: CHICAGO,01/12/2016 04:14:00,,2386.00,1368.00,393.00,193.00,115.00,149.00,73.00,32.00,APPROVED
IL: CHICAGO,01/12/2016 05:14:00,,2369.00,1358.00,384.00,192.00,115.00,148.00,71.00,32.00,APPROVED
IL: CHICAGO,01/12/2016 06:14:00,,2433.00,1422.00,410.00,206.00,120.00,162.00,76.00,33.00,APPROVED
IL: CHICAGO,01/12/2016 07:14:00,,2476.00,1441.00,416.00,205.00,122.00,162.00,75.00,32.00,APPROVED
IL: CHICAGO,01/12/2016 08:15:00,,2521.00,1467.00,432.00,208.00,124.00,168.00,77.00,34.00,APPROVED
IL: CHICAGO,01/12/2016 09:15:00,,2600.00,1493.00,436.00,210.00,126.00,173.00,79.00,33.00,APPROVED
IL: CHICAGO,01/12/2016 10:15:00,,2735.00,1485.00,439.00,210.00,124.00,171.00,75.00,33.00,APPROVED
IL: CHICAGO,01/12/2016 11:15:00,,2866.00,1497.00,450.00,214.00,127.00,176.00,76.00,34.00,APPROVED
IL: CHICAGO,01/12/2016 12:15:00,,3163.00,1505.00,438.00,215.00,125.00,176.00,74.00,33.00,APPROVED
IL: CHICAGO,01/13/2016 21:23:00,,3255.00,1153.00,334.00,155.00,96.00,126.00,54.00,28.00,APPROVED
IL: CHICAGO,01/13/2016 22:23:00,,2423.00,1162.00,336.00,157.00,98.00,128.00,56.00,29.00,APPROVED
IL: CHICAGO,01/13/2016 23:23:00,,2215.00,1179.00,332.00,157.00,103.00,130.00,58.00,29.00,APPROVED
IL: CHICAGO,01/14/2016 00:23:00,,2210.00,1189.00,341.00,165.00,100.00,129.00,58.00,30.00,APPROVED
IL: CHICAGO,01/14/2016 01:24:00,,2207.00,1195.00,341.00,165.00,101.00,129.00,61.00,30.00,APPROVED
IL: CHICAGO,01/14/2016 02:24:00,,2210.00,1209.00,344.00,164.00,106.00,132.00,65.00,29.00,APPROVED
IL: CHICAGO,01/14/2016 03:24:00,,2197.00,1198.00,342.00,166.00,103.00,133.00,64.00,29.00,APPROVED
IL: CHICAGO,01/14/2016 04:24:00,,2200.00,1204.00,343.00,164.00,100.00,130.00,63.00,30.00,APPROVED
IL: CHICAGO,01/14/2016 05:25:00,,2202.00,1215.00,344.00,167.00,101.00,129.00,66.00,29.00,APPROVED
IL: CHICAGO,01/14/2016 06:25:00,,2208.00,1225.00,348.00,173.00,105.00,131.00,68.00,29.00,APPROVED
IL: CHICAGO,01/14/2016 07:25:00,,2218.00,1232.00,352.00,174.00,108.00,135.00,67.00,30.00,APPROVED
IL: CHICAGO,01/14/2016 08:25:00,,2231.00,1244.00,353.00,176.00,108.00,135.00,70.00,29.00,APPROVED
IL: CHICAGO,01/14/2016 09:25:00,,2216.00,1248.00,353.00,178.00,107.00,135.00,70.00,32.00,APPROVED
IL: CHICAGO,01/14/2016 10:26:00,,2237.00,1266.00,363.00,183.00,108.00,136.00,71.00,31.00,APPROVED
IL: CHICAGO,01/14/2016 11:26:00,,2251.00,1286.00,362.00,185.00,107.00,138.00,72.00,31.00,APPROVED
IL: CHICAGO,01/14/2016 12:26:00,,2241.00,1284.00,367.00,185.00,109.00,142.00,72.00,32.00,APPROVED
IL: CHICAGO,01/14/2016 13:26:00,,2225.00,1274.00,363.00,187.00,112.00,138.00,74.00,32.00,APPROVED
IL: CHICAGO,01/14/2016 14:38:00,,2167.00,1202.00,338.00,165.00,102.00,125.00,66.00,29.00,APPROVED
IL: CHICAGO,01/14/2016 15:38:00,,2178.00,1231.00,351.00,183.00,108.00,136.00,73.00,31.00,APPROVED
IL: CHICAGO,01/14/2016 16:39:00,,2149.00,1244.00,357.00,188.00,109.00,134.00,77.00,32.00,APPROVED
IL: CHICAGO,01/14/2016 17:39:00,,2119.00,1241.00,357.00,186.00,113.00,139.00,78.00,32.00,APPROVED
IL: CHICAGO,01/14/2016 18:39:00,,2076.00,1220.00,353.00,194.00,112.00,139.00,77.00,33.00,APPROVED
IL: CHICAGO,01/14/2016 19:39:00,,2038.00,1210.00,353.00,188.00,110.00,137.00,80.00,33.00,APPROVED
IL: CHICAGO,01/14/2016 20:40:00,,2038.00,1209.00,355.00,188.00,114.00,135.00,81.00,32.00,APPROVED
IL: CHICAGO,01/14/2016 21:40:00,,2036.00,1207.00,352.00,193.00,112.00,136.00,80.00,32.00,APPROVED
IL: CHICAGO,01/14/2016 22:40:00,,2066.00,1226.00,351.00,190.00,111.00,137.00,81.00,33.00,APPROVED
IL: CHICAGO,01/14/2016 23:40:00,,2075.00,1229.00,348.00,191.00,111.00,136.00,82.00,32.00,APPROVED
IL: CHICAGO,01/15/2016 00:40:00,,2093.00,1221.00,348.00,189.00,113.00,131.00,81.00,33.00,APPROVED
IL: CHICAGO,01/15/2016 01:41:00,,2056.00,1206.00,346.00,189.00,111.00,133.00,80.00,34.00,APPROVED
IL: CHICAGO,01/15/2016 02:41:00,,2067.00,1206.00,342.00,186.00,110.00,130.00,79.00,32.00,APPROVED
IL: CHICAGO,01/15/2016 03:41:00,,2059.00,1194.00,340.00,179.00,106.00,130.00,79.00,31.00,APPROVED
IL: CHICAGO,01/15/2016 04:41:00,,2056.00,1186.00,338.00,181.00,107.00,127.00,77.00,31.00,APPROVED
IL: CHICAGO,01/15/2016 05:42:00,,2039.00,1177.00,334.00,175.00,106.00,129.00,77.00,32.00,APPROVED
IL: CHICAGO,01/15/2016 06:42:00,,2039.00,1183.00,340.00,177.00,107.00,129.00,75.00,31.00,APPROVED
IL: CHICAGO,01/15/2016 07:42:00,,2047.00,1182.00,339.00,178.00,106.00,127.00,77.00,33.00,APPROVED
IL: CHICAGO,01/15/2016 08:42:00,,2060.00,1172.00,338.00,178.00,104.00,125.00,76.00,32.00,APPROVED
IL: CHICAGO,01/15/2016 09:42:00,,2051.00,1178.00,333.00,178.00,107.00,124.00,77.00,31.00,APPROVED
IL: CHICAGO,01/15/2016 10:43:00,,2047.00,1172.00,334.00,174.00,105.00,128.00,74.00,33.00,APPROVED
IL: CHICAGO,01/15/2016 11:43:00,,2041.00,1179.00,335.00,180.00,105.00,126.00,75.00,31.00,APPROVED
IL: CHICAGO,01/15/2016 12:43:00,,2036.00,1167.00,334.00,174.00,104.00,125.00,76.00,33.00,APPROVED
IL: CHICAGO,01/15/2016 13:43:00,,2036.00,1170.00,339.00,173.00,107.00,129.00,76.00,31.00,APPROVED
IL: CHICAGO,01/15/2016 14:44:00,,2027.00,1167.00,331.00,176.00,104.00,126.00,75.00,30.00,APPROVED
IL: CHICAGO,01/15/2016 15:44:00,,2026.00,1166.00,338.00,176.00,107.00,129.00,75.00,31.00,APPROVED
IL: CHICAGO,01/15/2016 16:44:00,,2148.00,1275.00,370.00,192.00,112.00,139.00,80.00,34.00,APPROVED
IL: CHICAGO,01/15/2016 17:44:00,,2227.00,1353.00,390.00,212.00,119.00,147.00,85.00,34.00,APPROVED
IL: CHICAGO,01/15/2016 18:44:00,,2184.00,1314.00,376.00,205.00,114.00,148.00,85.00,35.00,APPROVED
IL: CHICAGO,01/15/2016 19:45:00,,2229.00,1360.00,389.00,216.00,120.00,152.00,86.00,35.00,APPROVED
IL: CHICAGO,01/15/2016 20:45:00,,2254.00,1364.00,391.00,220.00,122.00,151.00,86.00,36.00,APPROVED
IL: CHICAGO,01/15/2016 21:45:00,,2329.00,1436.00,410.00,232.00,130.00,162.00,89.00,36.00,APPROVED
IL: CHICAGO,01/15/2016 22:45:00,,2391.00,1511.00,424.00,247.00,133.00,175.00,93.00,37.00,APPROVED
IL: CHICAGO,01/15/2016 23:46:00,,2371.00,1522.00,434.00,256.00,137.00,178.00,95.00,38.00,APPROVED
IL: CHICAGO,01/16/2016 00:46:00,,2301.00,1429.00,408.00,237.00,126.00,169.00,88.00,34.00,APPROVED
IL: CHICAGO,01/16/2016 01:46:00,,2278.00,1389.00,395.00,223.00,121.00,158.00,84.00,35.00,APPROVED
IL: CHICAGO,01/16/2016 02:46:00,,2244.00,1359.00,385.00,221.00,123.00,156.00,85.00,34.00,APPROVED
IL: CHICAGO,01/16/2016 03:46:00,,2186.00,1315.00,379.00,208.00,118.00,150.00,80.00,34.00,APPROVED
IL: CHICAGO,01/16/2016 04:47:00,,2170.00,1273.00,370.00,196.00,114.00,144.00,78.00,33.00,APPROVED
IL: CHICAGO,01/16/2016 05:47:00,,2121.00,1221.00,349.00,183.00,109.00,135.00,74.00,32.00,APPROVED
IL: CHICAGO,01/16/2016 06:47:00,,2094.00,1195.00,337.00,176.00,106.00,130.00,73.00,29.00,APPROVED
IL: CHICAGO,01/16/2016 07:47:00,,2080.00,1167.00,333.00,169.00,102.00,125.00,70.00,29.00,APPROVED
IL: CHICAGO,01/16/2016 08:48:00,,2087.00,1161.00,335.00,168.00,101.00,125.00,67.00,30.00,APPROVED
IL: CHICAGO,01/16/2016 09:48:00,,2097.00,1154.00,331.00,166.00,101.00,126.00,67.00,30.00,APPROVED
IL: CHICAGO,01/16/2016 10:48:00,,2083.00,1147.00,323.00,164.00,99.00,127.00,67.00,29.00,APPROVED
IL: CHICAGO,01/16/2016 11:48:00,,2063.00,1134.00,322.00,159.00,100.00,121.00,64.00,30.00,APPROVED
IL: CHICAGO,01/16/2016 12:48:00,,2063.00,1124.00,324.00,155.00,99.00,119.00,63.00,29.00,APPROVED
IL: CHICAGO,01/16/2016 13:49:00,,2086.00,1122.00,318.00,155.00,99.00,119.00,63.00,27.00,APPROVED
IL: CHICAGO,01/16/2016 14:49:00,,2081.00,1120.00,319.00,151.00,99.00,120.00,61.00,28.00,APPROVED
IL: CHICAGO,01/16/2016 15:49:00,,2101.00,1130.00,319.00,155.00,98.00,120.00,63.00,28.00,APPROVED
IL: CHICAGO,01/16/2016 16:49:00,,2079.00,1138.00,323.00,157.00,100.00,123.00,64.00,29.00,APPROVED
IL: CHICAGO,01/16/2016 17:50:00,,2040.00,1132.00,322.00,160.00,103.00,123.00,66.00,29.00,APPROVED
IL: CHICAGO,01/16/2016 18:50:00,,2074.00,1170.00,337.00,167.00,104.00,128.00,66.00,31.00,APPROVED
IL: CHICAGO,01/16/2016 19:50:00,,2078.00,1182.00,336.00,177.00,104.00,127.00,70.00,30.00,APPROVED
IL: CHICAGO,01/16/2016 20:50:00,,2077.00,1177.00,342.00,173.00,105.00,132.00,72.00,30.00,APPROVED
IL: CHICAGO,01/16/2016 21:50:00,,2090.00,1181.00,340.00,170.00,104.00,131.00,69.00,30.00,APPROVED
IL: CHICAGO,01/16/2016 22:51:00,,2113.00,1167.00,335.00,169.00,101.00,127.00,66.00,29.00,APPROVED
IL: CHICAGO,01/16/2016 23:51:00,,2139.00,1162.00,333.00,168.00,100.00,128.00,64.00,28.00,APPROVED
IL: CHICAGO,01/17/2016 00:51:00,,2171.00,1178.00,336.00,165.00,104.00,129.00,63.00,28.00,APPROVED
IL: CHICAGO,01/17/2016 01:51:00,,2185.00,1182.00,340.00,167.00,102.00,129.00,63.00,30.00,APPROVED
IL: CHICAGO,01/17/2016 02:52:00,,2194.00,1182.00,336.00,166.00,104.00,131.00,63.00,29.00,APPROVED
IL: CHICAGO,01/17/2016 03:52:00,,2177.00,1183.00,336.00,159.00,101.00,130.00,60.00,30.00,APPROVED